Wind_Speed
2 1 3 6 8 8 8 8 7 4 4 3 2 4 5 6 8 6 3 3 1 2 7 6 9 16 18 21 17 7 4 7 9 10 9 9 10 9 9 9 9 9 9 13 16 14 16 21 24 26 26 25 27 28 29 31 33 35 35 35 35 36 38 39 39 38 38 36 34 34 36 38 40 41 41 42 43 43 43 42 42 40 38 36 35 34
2 2 8 10 9 7 6 6 5 3 3 3 4 5 5 5 9 7 1 3 1 2 5 2 5 16 17 18 16 8 4 7 8 8 10 13 13 11 12 13 12 10 10 14 16 16 15 18 21 23 25 25 26 27 28 30 32 34 35 36 35 35 37 39 39 39 39 40 39 38 39 40 40 40 42 44 45 46 45 44 43 41 40 39 38 36
1 6 11 6 5 3 3 4 5 4 4 3 3 2 5 4 6 8 2 3 1 3 4 3 4 15 19 18 15 8 4 5 9 10 12 15 16 15 15 15 15 15 15 16 17 20 22 18 18 20 22 24 26 27 28 29 31 32 33 34 35 36 37 38 39 39 39 40 43 42 39 39 40 40 44 47 46 47 46 45 45 44 42 41 39 38
2 7 7 2 6 6 3 3 6 3 2 4 4 2 5 4 1 5 3 2 1 2 4 4 5 12 16 15 9 5 7 9 12 14 14 14 15 15 15 15 16 18 18 18 18 20 25 25 19 17 20 23 23 24 26 28 29 30 32 34 35 36 37 38 39 40 40 39 41 41 38 37 37 37 40 41 40 42 44 45 46 46 44 43 41 40
8 6 2 5 5 6 3 2 5 4 3 4 6 6 7 7 5 6 3 3 3 2 2 3 5 7 8 8 3 8 12 14 14 15 16 15 14 13 14 16 16 17 16 17 19 19 22 26 26 21 18 19 20 22 25 27 28 29 31 34 35 36 37 37 39 40 41 38 36 35 32 30 30 29 30 33 33 35 39 43 46 47 46 45 43 42
9 4 4 4 2 3 4 3 4 6 3 4 5 10 12 9 6 6 4 5 4 3 1 1 4 6 3 4 4 5 11 13 13 15 17 15 14 14 14 15 15 15 14 14 17 18 20 25 28 30 27 20 18 21 25 26 26 27 28 31 33 35 35 36 38 40 40 38 35 34 31 28 27 26 28 32 34 37 42 45 48 48 47 47 46 45
3 2 2 3 4 3 3 4 4 7 3 4 4 6 8 7 5 5 2 1 1 3 2 2 1 6 3 3 7 5 10 11 13 15 15 13 14 14 13 13 13 14 13 13 15 17 21 25 27 29 31 29 24 20 20 23 24 26 26 27 30 32 33 33 35 38 38 37 35 36 37 35 33 31 31 34 37 41 46 48 49 50 49 49 48 47
1 3 4 3 4 3 3 4 5 8 5 3 4 1 2 3 3 4 3 3 3 3 3 1 4 3 5 4 6 6 7 11 14 15 14 13 14 14 13 13 13 13 13 13 15 16 19 24 27 27 29 32 34 32 24 17 20 25 26 26 26 28 31 31 32 35 37 38 36 37 38 37 37 36 35 36 38 41 42 43 46 48 50 50 49 48
2 2 2 4 3 2 4 4 5 8 5 4 3 3 4 4 3 4 4 3 1 3 4 3 5 2 6 5 6 8 7 11 14 13 13 13 13 13 13 13 13 12 12 12 13 15 19 23 27 28 32 37 40 40 37 29 20 17 20 25 26 26 28 30 31 33 36 38 38 37 37 36 36 36 35 36 38 38 37 38 41 44 47 49 50 50
1 3 5 6 4 4 4 2 3 6 3 3 3 3 4 4 3 4 3 2 2 2 6 5 6 4 5 4 6 7 6 9 11 9 10 10 10 11 12 12 12 11 10 11 12 15 19 23 27 30 34 39 41 41 42 40 34 27 20 16 19 24 27 29 30 31 33 37 37 36 36 36 36 35 34 33 34 35 35 37 38 41 44 46 49 50
3 1 3 3 3 4 4 1 0 3 2 2 2 2 3 4 4 3 1 3 3 3 7 4 6 6 3 2 3 4 4 5 7 7 9 10 11 11 11 11 11 10 9 9 11 15 20 24 27 31 33 37 39 41 44 43 40 38 34 27 19 15 18 23 28 31 32 34 36 37 37 37 37 36 34 32 32 33 35 37 38 41 44 46 48 50
3 1 2 1 1 4 5 3 2 2 2 2 2 3 3 3 3 4 3 3 2 5 5 4 4 5 4 2 1 2 2 3 4 6 9 11 12 10 9 9 8 8 8 10 10 12 18 23 26 29 31 34 37 39 41 41 40 40 40 37 32 26 20 15 17 23 28 31 33 35 36 37 37 36 35 34 34 35 37 39 40 41 43 44 45 47
3 2 2 2 1 3 4 2 3 2 3 3 2 3 2 4 3 3 3 1 2 5 3 2 2 3 3 2 2 3 1 2 2 3 5 8 10 10 9 8 7 7 9 10 10 11 13 17 21 25 27 30 33 36 37 38 38 38 40 40 37 35 31 25 19 15 18 24 28 31 33 35 35 35 33 33 34 34 36 38 39 40 42 43 44 45
5 3 2 0 1 1 3 2 2 2 2 3 2 2 2 0 2 4 4 3 4 4 3 2 2 2 2 1 4 5 2 1 2 2 3 4 6 7 8 8 8 9 10 9 9 10 11 15 20 22 23 26 29 32 34 36 36 36 37 39 38 38 37 32 27 22 18 17 21 26 30 31 31 31 31 31 31 31 33 35 36 38 42 44 47 49
3 4 2 1 1 1 2 3 2 2 3 3 3 4 3 3 2 4 4 4 5 5 4 3 2 3 2 2 5 6 3 1 1 2 3 3 3 4 5 8 9 10 9 8 8 8 12 18 21 21 22 24 27 30 31 32 34 34 35 36 36 36 37 36 34 30 25 22 19 20 24 27 29 29 30 31 31 31 31 32 34 37 39 41 45 48
2 5 4 1 0 3 3 2 3 3 2 1 2 3 2 3 4 2 3 5 3 3 4 3 2 1 1 1 4 5 3 1 0 2 2 3 3 3 5 8 9 9 9 9 9 10 14 19 21 21 23 24 25 28 29 30 31 32 32 33 34 34 34 35 36 34 31 28 23 20 21 23 27 29 30 30 31 31 32 33 35 37 37 38 40 41
2 6 3 1 2 2 4 2 1 0 1 1 2 2 4 4 5 1 4 2 2 1 3 2 2 0 2 2 4 5 2 1 2 3 4 4 5 6 6 6 6 7 8 9 9 9 13 17 20 21 22 23 24 26 27 28 29 30 30 31 31 32 33 34 34 34 34 33 29 25 22 21 23 27 30 32 32 32 33 33 34 35 36 37 37 37
0 6 5 1 1 2 2 1 3 2 2 3 2 4 3 1 3 3 1 3 1 3 4 1 4 3 2 2 3 2 2 4 5 6 6 7 8 8 7 7 6 6 6 7 8 8 12 17 19 21 22 22 23 24 25 27 28 29 30 30 30 30 30 31 31 32 32 33 32 30 27 23 22 23 26 30 32 33 33 34 34 34 35 36 37 37
1 4 7 1 2 2 1 2 4 4 1 2 3 2 1 1 2 1 0 2 2 4 4 3 6 5 4 3 1 2 5 7 7 7 8 10 10 9 10 10 10 8 7 7 8 8 10 15 17 21 23 24 25 25 25 26 29 31 32 31 30 28 29 30 30 31 32 32 32 31 31 28 24 22 22 25 29 32 33 34 34 35 36 36 37 38
1 1 5 2 3 1 3 2 1 4 3 2 2 3 1 3 3 1 2 2 2 4 5 4 6 5 3 3 3 1 4 4 6 7 7 8 9 8 8 10 11 11 9 9 9 8 9 14 17 19 21 23 26 27 27 28 30 33 34 33 31 30 31 32 33 32 32 32 32 32 33 31 28 25 22 22 23 27 31 33 34 35 36 36 37 38
0 2 4 4 2 2 3 2 4 3 4 3 1 2 2 1 1 1 1 1 1 3 3 3 6 5 1 2 3 1 2 2 4 5 5 6 7 6 6 8 9 10 10 8 8 8 9 14 18 19 19 20 22 26 28 29 32 34 36 34 32 31 32 34 35 34 32 32 32 32 32 32 30 28 26 23 22 24 27 30 32 34 35 36 37 38
1 2 3 6 6 5 6 5 4 4 4 2 3 3 2 1 1 3 4 1 1 2 3 2 6 5 1 2 2 2 1 3 4 5 5 7 7 5 3 6 8 10 9 7 8 9 10 15 19 20 20 20 20 22 24 27 31 34 36 34 31 31 33 34 35 35 35 34 32 31 31 31 31 31 29 26 24 24 25 27 29 32 34 35 36 37
2 1 3 6 7 8 10 6 1 1 2 4 2 2 2 2 3 3 5 4 2 2 1 1 4 4 0 1 1 3 3 4 4 6 8 8 8 6 5 6 8 10 9 6 6 9 11 15 20 21 21 21 22 22 23 25 30 32 34 32 30 31 32 34 34 35 35 34 34 32 31 30 32 32 31 29 27 26 25 26 27 29 31 34 35 36
1 1 1 5 6 6 7 5 4 3 4 4 1 2 3 1 3 5 5 2 1 4 2 2 5 3 1 0 2 4 4 5 5 7 10 9 8 8 8 8 9 11 11 7 6 8 12 16 18 19 19 20 22 24 25 27 29 30 31 30 29 31 32 33 34 33 33 34 34 33 31 31 32 32 31 30 29 28 26 26 26 27 29 31 33 34
1 1 1 4 7 7 7 6 5 4 3 2 2 1 2 2 2 1 1 1 1 4 2 4 6 2 0 1 2 4 5 6 7 8 9 9 9 9 8 8 11 12 12 10 7 8 12 14 16 17 18 19 21 23 25 27 28 29 29 28 28 30 32 33 33 33 32 31 31 31 30 31 31 30 30 30 30 29 28 27 26 26 27 29 31 32
2 2 1 1 4 6 6 6 4 4 3 0 0 1 1 3 2 2 1 1 2 2 1 3 5 2 1 1 3 6 8 9 9 9 10 9 10 11 9 8 10 11 12 11 8 8 10 11 15 17 17 18 21 22 24 27 29 29 27 26 27 29 32 33 33 33 33 30 29 29 29 28 28 27 28 29 30 30 30 29 27 26 26 27 29 30
1 2 3 6 7 7 8 8 5 4 6 7 4 2 2 2 2 2 2 2 3 2 1 3 3 6 7 6 6 9 12 12 11 12 13 12 12 12 10 9 10 10 10 8 7 8 9 11 15 16 15 17 21 22 25 28 29 29 27 26 28 30 32 32 32 33 34 31 29 29 28 26 26 27 28 29 30 30 31 30 29 27 26 26 27 29
1 3 4 6 8 8 7 9 8 7 8 9 7 3 2 2 2 4 2 3 0 1 3 3 7 10 12 8 8 10 11 12 12 12 12 13 13 12 10 11 13 12 9 7 7 9 10 11 13 13 14 18 20 22 25 27 28 28 28 28 30 30 31 31 31 33 34 32 30 29 28 28 28 28 28 29 30 30 30 30 29 28 26 25 26 27
3 4 4 2 6 8 7 10 11 8 6 5 3 2 2 1 2 3 3 2 4 3 6 8 11 12 10 7 9 10 11 11 12 12 12 14 14 12 11 13 15 14 10 8 9 11 12 12 12 12 15 19 21 23 25 26 27 28 29 30 31 32 32 30 30 32 32 30 28 28 29 31 31 31 30 30 30 31 30 30 29 28 27 26 26 26
3 4 3 1 6 9 9 11 10 5 4 4 2 3 2 1 2 1 1 3 4 5 7 8 12 10 5 7 10 11 10 11 12 13 15 16 14 12 12 14 15 13 10 9 12 14 13 13 14 15 17 20 22 23 25 25 25 27 29 30 31 33 33 31 30 30 29 27 27 28 31 32 32 32 32 31 30 31 31 31 30 29 28 27 26 26
2 2 1 3 4 8 6 6 4 3 5 4 4 6 5 3 3 4 2 3 4 5 5 7 9 6 4 8 11 11 10 11 13 15 16 15 14 13 13 14 14 11 8 9 13 15 14 14 16 18 20 22 23 24 24 24 25 26 27 29 31 33 33 32 31 30 29 26 26 29 31 31 31 31 30 30 30 31 32 31 30 29 28 27 26 25
2 1 2 5 4 7 3 3 6 6 4 3 5 7 7 5 4 2 2 4 5 5 6 8 6 4 6 9 10 10 11 13 15 16 16 15 14 13 13 15 13 9 8 11 14 15 14 14 16 19 21 23 25 25 26 26 26 26 27 28 31 33 33 32 31 31 30 28 28 29 29 28 29 30 30 29 30 31 31 31 29 29 28 28 27 25
2 0 2 2 2 6 4 5 7 7 4 3 3 5 5 2 2 4 5 5 6 4 4 6 5 5 8 10 11 14 16 16 15 15 16 16 15 13 13 13 11 9 10 13 14 14 14 15 18 21 23 24 25 26 27 27 27 28 28 29 31 33 32 31 31 31 31 31 29 27 26 27 28 30 30 29 29 30 30 30 28 28 28 28 27 25
2 2 1 1 1 5 7 6 6 5 4 2 1 2 3 1 4 7 7 7 8 4 1 3 5 8 11 11 13 16 16 15 16 16 16 15 13 12 11 9 8 10 13 14 14 14 16 19 22 24 25 26 27 27 27 26 27 28 28 29 30 32 31 31 31 31 31 30 28 26 27 28 28 28 28 29 29 30 30 29 28 27 27 27 26 25
1 0 2 1 2 3 5 6 5 5 4 4 3 4 4 3 4 8 8 8 7 2 3 5 7 10 13 13 13 14 14 16 17 17 17 15 11 9 9 7 10 14 15 14 14 15 19 23 25 26 27 28 28 27 26 26 27 27 26 27 28 29 29 30 30 30 30 29 27 27 28 29 28 26 26 27 29 30 30 29 27 26 25 25 25 25
1 2 1 1 1 2 3 4 3 5 3 4 1 6 5 4 6 7 8 9 4 3 4 8 11 12 13 14 14 13 14 16 15 15 16 12 5 4 7 9 12 14 15 16 17 19 23 26 27 28 29 30 29 27 26 28 28 26 25 26 27 27 28 29 29 28 28 27 27 27 28 28 27 26 26 26 28 29 29 28 27 26 24 23 24 24
3 1 1 1 0 1 1 2 3 3 1 1 3 5 5 6 7 6 8 8 1 2 6 12 14 15 14 14 14 14 14 14 12 11 9 3 2 7 12 14 15 16 18 22 24 26 29 30 30 30 31 31 28 26 28 30 28 24 24 25 25 27 28 28 28 28 28 27 26 26 27 26 26 26 26 26 26 27 28 27 27 25 23 22 22 22
2 0 1 1 2 2 1 3 3 4 4 1 3 7 7 8 9 7 5 3 1 6 13 14 14 16 15 15 16 15 13 12 10 8 4 3 9 14 16 16 18 20 22 25 28 30 32 33 32 32 31 29 26 27 29 29 25 23 23 24 24 25 26 26 27 28 28 27 27 27 26 25 25 25 26 25 26 26 27 26 25 24 22 21 21 21
5 3 3 1 3 2 1 4 3 2 3 1 5 10 9 9 10 7 3 2 4 12 16 14 13 15 14 14 15 14 11 11 10 8 7 10 14 14 13 15 18 21 24 28 30 31 33 33 33 32 29 26 26 28 30 27 23 21 22 22 23 23 23 25 26 27 28 28 27 26 25 24 25 25 24 25 26 27 27 26 24 21 20 19 20 20
6 4 3 2 2 1 1 2 3 2 1 2 7 11 11 10 10 7 5 6 10 15 16 14 15 14 13 13 12 10 9 10 11 10 12 15 16 15 15 15 17 21 25 29 31 31 31 31 29 28 27 26 27 29 29 25 22 20 21 22 22 21 22 24 25 27 28 28 26 25 25 25 25 25 25 26 28 28 26 24 21 19 17 17 18 17
2 2 1 1 2 2 2 2 3 2 2 2 8 11 11 10 7 6 7 10 13 15 15 15 16 15 12 12 10 8 9 12 13 14 15 16 15 16 18 20 21 24 26 28 29 28 27 28 29 29 29 27 27 28 27 23 20 20 21 22 21 22 23 24 25 27 28 27 25 25 27 27 26 27 28 27 27 26 25 22 19 16 15 15 15 15
1 2 2 1 1 1 1 2 3 1 2 3 11 13 10 7 5 6 8 12 15 16 16 16 15 13 12 12 11 10 12 14 15 16 16 16 15 15 17 20 22 23 25 27 26 25 26 30 31 30 27 25 26 28 25 20 19 21 22 21 21 23 25 24 25 26 26 26 26 26 27 27 27 27 27 26 25 24 22 19 16 14 13 13 13 13
2 2 3 3 2 1 2 2 2 1 3 7 12 11 7 6 7 9 11 13 15 17 17 15 12 11 12 12 12 13 15 15 16 16 16 15 15 15 17 19 20 21 24 25 24 25 28 29 27 25 25 26 28 26 20 18 20 22 22 22 24 26 25 24 24 24 24 25 27 28 27 26 26 26 25 24 23 21 19 16 14 12 11 11 11 11
4 3 3 2 2 2 3 3 2 3 6 7 9 9 8 8 9 11 12 13 14 14 14 11 11 12 12 13 14 15 15 16 17 17 15 15 13 13 15 19 20 22 25 25 25 26 25 23 24 26 28 30 28 21 17 19 23 23 23 25 26 26 25 24 23 23 23 24 26 27 27 26 25 24 22 21 20 18 16 14 12 10 9 9 10 10
3 4 3 2 2 3 4 5 4 5 7 9 10 10 11 12 12 13 14 14 14 13 12 11 12 13 13 13 15 14 14 16 18 17 15 14 13 12 13 17 21 25 25 24 25 25 23 23 25 27 29 29 24 19 18 22 24 24 25 27 26 25 24 23 22 22 23 24 25 26 25 25 24 22 20 18 17 15 14 12 10 9 8 8 9 9
2 5 3 2 5 7 4 5 6 8 10 13 13 13 13 14 14 14 15 15 14 13 12 11 12 13 13 13 13 13 14 17 17 16 14 12 11 11 14 19 23 25 22 22 24 25 24 25 25 26 27 27 22 18 21 24 25 27 28 26 24 23 22 21 21 22 22 24 25 24 24 23 22 21 19 17 15 13 12 11 9 8 8 7 7 8
4 6 6 6 9 8 5 7 10 11 13 15 14 14 15 16 15 14 14 14 15 14 13 13 13 14 14 14 14 15 17 18 16 15 12 10 10 12 16 20 21 20 20 23 25 25 24 23 24 26 27 25 21 21 24 27 28 28 26 23 21 20 20 20 20 21 21 23 24 23 22 21 21 20 19 17 15 14 12 10 9 8 8 7 7 7
5 5 7 9 9 8 9 12 13 13 14 14 12 12 14 16 17 16 15 15 15 15 16 17 16 13 12 12 14 15 16 16 15 14 12 11 11 14 17 18 18 20 23 25 23 22 22 24 25 26 25 23 23 25 27 27 27 24 21 20 19 18 18 20 19 19 20 22 22 21 20 19 18 18 17 17 15 14 13 11 10 9 8 8 8 8
4 4 7 10 10 8 10 13 15 14 13 11 12 14 14 15 16 17 16 16 16 15 17 20 20 17 14 13 12 13 15 14 14 14 14 13 13 15 15 17 20 24 25 23 21 21 24 25 24 24 24 24 25 26 26 24 23 21 19 18 17 16 17 19 19 19 20 20 20 19 19 18 17 16 16 16 15 14 12 11 10 10 10 9 8 9
5 7 8 9 8 7 10 14 15 13 10 11 15 17 17 16 16 17 17 17 16 15 16 18 20 19 18 17 15 13 13 13 14 15 15 14 15 14 15 19 24 25 22 21 21 24 25 24 23 23 23 24 24 24 23 22 20 20 18 16 16 16 16 17 18 18 18 18 18 18 18 17 16 15 14 14 14 14 13 11 9 9 10 10 9 8
6 7 8 8 7 9 13 15 14 11 11 14 17 18 16 15 16 17 17 16 14 15 17 17 16 15 15 18 21 18 13 13 16 16 14 16 18 17 18 23 25 22 20 21 23 24 25 24 23 22 23 23 23 23 22 21 20 19 17 16 16 15 15 15 16 16 16 16 17 17 17 16 16 15 14 13 12 12 12 12 11 8 7 8 9 9
Wind_Direction
98 186 240 229 228 222 212 205 208 205 178 197 221 238 247 258 272 257 231 271 155 265 264 227 248 268 274 279 284 285 246 258 281 299 309 317 320 319 322 323 324 318 306 320 319 292 268 257 250 246 243 243 239 232 225 220 218 216 214 210 208 207 207 206 204 204 204 203 204 204 205 206 207 208 209 210 211 212 213 213 212 211 209 210 210 210
88 220 242 231 228 220 202 196 185 164 172 198 227 259 269 239 261 270 234 300 231 189 269 283 281 276 274 277 284 298 301 311 335 340 342 353 357 353 356 354 350 349 339 335 332 321 297 265 253 248 242 240 240 237 231 225 221 219 216 214 212 209 208 208 207 206 205 206 208 209 208 208 209 210 210 212 214 213 214 214 214 213 212 211 211 211
11 246 250 226 177 133 94 148 165 180 195 198 198 250 279 239 264 289 320 356 328 187 265 347 317 283 282 282 288 311 337 3 24 32 21 14 15 12 10 8 4 6 3 359 356 348 336 306 270 253 245 241 239 237 234 230 226 222 218 216 215 213 211 210 210 209 209 210 212 213 213 210 209 212 214 216 217 215 214 215 216 215 214 213 213 213
251 251 256 177 129 123 81 118 144 158 208 200 188 202 261 248 244 280 303 352 255 216 274 317 304 281 285 291 308 20 67 66 46 41 39 28 23 18 15 16 13 12 8 5 5 1 358 348 321 280 255 246 242 240 237 233 229 224 221 218 217 216 215 213 212 212 213 213 214 215 216 214 211 212 215 215 215 214 213 214 215 215 214 214 215 215
246 240 151 100 116 141 144 149 149 176 254 236 210 212 244 251 226 236 292 338 287 300 296 301 300 280 283 292 331 83 77 59 42 34 33 28 25 21 19 21 18 16 12 9 8 5 5 4 356 340 303 269 252 244 242 239 234 228 224 221 220 218 217 216 214 214 214 214 214 212 213 215 212 212 212 210 212 213 212 213 215 215 216 216 217 217
264 259 128 118 115 142 168 216 189 183 245 291 234 222 236 250 248 254 329 358 339 334 296 7 323 290 293 292 301 68 70 48 35 32 28 21 18 20 21 20 16 16 15 14 14 9 9 9 8 5 355 330 290 262 250 246 242 238 233 227 224 222 220 218 216 215 215 213 211 208 207 208 207 209 210 209 210 212 214 215 216 217 217 217 218 218
276 347 70 136 156 157 190 253 234 176 174 300 266 231 238 253 265 266 315 34 280 271 272 54 22 276 308 315 314 21 68 44 29 29 22 16 17 19 19 16 13 13 13 13 15 14 14 13 11 11 8 1 346 318 283 261 251 247 244 237 231 227 223 221 219 218 216 214 212 210 210 211 210 210 212 214 214 215 217 217 217 218 218 218 218 218
168 43 41 92 122 146 196 258 233 164 143 256 261 103 146 180 218 222 177 183 238 285 287 139 147 264 287 273 325 20 59 30 24 22 14 13 15 15 15 15 14 12 10 12 15 15 15 15 15 13 11 11 11 8 354 315 276 258 251 247 241 235 230 226 224 221 218 216 215 214 215 216 216 216 217 218 217 217 216 216 216 217 218 218 219 220
149 137 186 140 113 176 206 242 216 169 165 248 224 105 111 136 165 155 140 186 307 348 291 220 149 236 270 261 353 25 43 19 13 10 7 9 9 10 12 11 11 11 11 14 16 16 15 14 14 14 16 19 19 19 19 12 348 306 273 257 249 244 238 232 229 225 222 220 219 219 218 219 221 222 222 221 220 218 216 216 216 217 218 219 219 220
252 205 196 152 155 217 213 253 224 179 207 237 151 103 71 73 72 82 111 137 51 338 270 237 173 201 270 291 352 16 38 11 353 354 2 2 5 9 8 7 8 7 8 14 19 19 16 15 15 15 20 23 22 21 23 24 21 11 350 310 272 254 245 239 234 230 228 224 223 222 222 222 224 224 224 223 222 219 216 217 217 217 218 219 219 219
286 199 184 143 175 195 154 112 156 151 172 153 111 26 16 38 46 47 82 99 67 274 268 257 201 204 268 309 360 13 23 350 332 345 353 354 3 8 7 5 4 1 1 11 18 18 16 16 17 19 21 22 22 24 24 24 24 23 19 10 349 308 272 253 242 236 232 229 226 226 225 226 226 225 223 222 221 218 216 216 217 218 219 220 221 220
322 127 207 264 164 134 112 79 57 107 125 109 75 26 353 334 19 25 354 55 100 249 269 286 231 205 235 251 82 63 357 334 337 348 351 355 358 359 4 1 353 355 3 13 16 15 15 14 15 18 20 20 20 22 23 22 22 24 24 22 18 9 352 319 277 253 242 235 231 230 230 230 229 228 225 223 221 219 217 217 217 218 219 219 220 220
311 229 265 303 206 139 124 81 21 19 58 76 65 55 25 330 352 347 306 293 206 242 258 282 250 199 234 254 139 127 51 343 332 334 340 352 354 353 358 353 349 3 9 14 16 14 14 13 13 15 17 19 20 21 21 20 20 21 23 24 22 18 14 6 350 317 279 256 244 238 236 236 235 234 232 230 228 224 221 220 218 217 217 217 218 219
333 314 331 20 270 189 150 148 317 323 86 133 165 125 128 50 331 285 277 285 278 266 254 255 233 214 259 247 157 142 105 324 312 326 310 327 343 344 349 351 360 12 13 12 12 13 16 15 14 14 16 19 20 19 20 20 19 18 19 21 20 18 17 16 12 2 342 310 279 260 249 245 244 243 241 239 237 234 230 226 223 220 219 219 220 221
326 305 279 181 190 155 182 192 184 149 137 174 173 135 147 166 210 250 249 258 280 287 275 270 224 212 211 141 155 153 141 166 314 317 288 294 302 307 342 3 9 11 10 9 7 12 18 16 15 13 15 19 19 18 19 18 17 17 17 17 17 15 15 15 15 13 6 353 330 302 278 264 256 252 249 247 244 241 238 235 231 228 225 223 224 224
274 271 255 270 89 161 196 206 139 116 119 208 139 111 166 188 180 224 228 218 254 309 287 257 218 184 102 155 167 153 142 114 20 319 332 346 337 340 4 12 12 7 4 4 5 10 15 15 14 13 14 16 17 17 17 17 15 15 14 14 15 13 12 12 13 12 11 6 357 342 320 295 275 263 257 254 251 247 244 242 238 235 232 230 229 228
321 279 257 47 343 182 183 198 159 183 212 128 129 202 225 178 141 169 274 279 68 304 267 245 238 100 71 251 199 164 169 29 23 3 9 7 4 13 19 17 10 5 3 2 3 4 8 10 10 13 14 14 15 14 14 15 14 13 12 11 11 11 10 10 8 8 8 8 5 359 349 330 306 284 270 262 257 254 250 248 245 242 238 235 233 231
220 284 283 129 281 260 176 205 298 270 163 139 203 241 244 128 104 109 278 325 11 249 260 258 246 229 169 222 194 167 325 359 4 359 2 1 9 14 12 13 10 8 7 2 2 2 5 8 6 8 10 12 13 13 12 12 12 12 11 10 9 9 8 7 5 4 3 4 3 359 355 348 333 313 294 279 268 262 257 254 250 247 244 240 238 236
124 291 303 18 168 275 15 41 316 297 191 169 234 268 72 212 285 22 114 276 281 267 277 274 261 248 202 194 109 359 341 351 345 350 1 357 3 6 1 4 3 3 5 1 2 1 5 7 4 4 5 6 8 8 9 10 9 10 9 8 8 7 5 4 2 1 359 358 357 354 353 351 344 334 319 301 285 273 264 259 255 252 249 246 242 239
114 221 290 293 163 245 353 46 304 302 327 359 329 329 29 174 212 210 181 202 226 261 274 275 272 267 220 167 111 348 314 334 335 348 356 348 351 353 355 1 359 357 358 357 359 355 358 1 1 2 3 3 4 3 4 6 6 7 6 5 5 4 3 2 360 358 355 353 351 348 348 349 346 341 332 321 305 288 275 267 261 256 253 249 246 243
356 168 255 281 264 299 314 221 193 238 289 318 320 298 307 251 244 274 209 148 168 236 254 270 266 266 232 129 118 169 280 317 340 345 337 330 336 338 349 1 359 355 350 348 352 349 351 354 353 356 359 0 2 1 2 3 3 3 2 2 3 2 0 358 355 353 350 347 346 344 343 342 342 341 336 329 319 303 289 278 268 262 257 253 249 245
227 189 238 286 299 294 275 242 206 225 244 216 186 194 195 196 331 302 278 298 78 206 191 213 264 271 156 129 117 88 349 326 339 351 348 339 334 324 341 3 2 354 344 339 345 344 346 349 348 349 350 353 358 359 1 2 1 360 359 358 358 358 356 354 351 348 345 343 341 340 339 337 336 337 335 331 325 315 304 291 279 270 262 256 252 248
167 158 250 275 274 270 279 289 308 186 149 120 128 137 130 133 129 188 251 285 329 247 151 138 267 280 313 131 64 52 25 349 349 3 1 347 341 340 342 356 358 348 338 326 331 341 347 347 344 344 345 349 352 354 357 0 0 357 355 354 354 353 352 350 347 344 342 340 338 336 335 334 333 333 332 331 327 320 312 302 291 280 269 262 257 252
167 113 279 286 284 280 293 335 48 68 86 86 11 55 97 145 142 170 212 224 250 260 272 275 267 276 325 307 54 44 20 7 6 7 359 346 343 346 344 348 348 344 339 328 322 342 348 345 342 341 343 347 350 351 353 355 355 354 351 351 350 348 347 346 344 342 340 337 335 334 333 331 331 330 328 327 324 320 314 308 300 290 279 269 261 255
277 170 59 321 316 317 324 353 13 357 25 64 317 4 88 69 67 187 255 73 250 253 219 244 266 280 31 304 32 37 20 13 10 3 352 342 340 343 344 345 343 341 337 329 331 346 345 342 341 339 342 347 349 349 349 349 348 348 347 347 346 344 343 343 342 340 337 334 331 330 329 328 328 326 323 321 318 316 312 308 302 296 287 276 267 259
244 226 155 237 284 292 297 304 315 323 322 313 307 303 44 54 67 245 287 114 228 270 128 223 267 299 332 310 19 22 12 5 359 352 344 340 338 335 337 339 339 340 331 326 337 347 341 339 336 335 342 347 345 344 343 343 344 343 341 342 343 341 339 339 339 337 335 332 328 326 325 324 323 322 318 315 313 311 309 306 301 295 289 280 272 264
96 256 216 206 223 240 253 267 292 332 301 288 299 279 272 357 62 131 116 177 220 299 298 247 298 335 331 342 15 15 6 357 346 341 338 334 329 329 333 333 334 333 322 322 340 340 334 335 332 332 340 341 339 339 339 339 339 338 336 336 338 338 337 336 336 335 333 330 326 324 322 321 319 317 314 311 309 308 306 303 299 294 289 283 276 268
61 287 252 219 232 247 260 275 291 303 288 286 301 283 246 321 81 140 203 260 283 328 278 323 1 335 322 349 25 11 355 344 333 329 328 326 325 326 328 327 328 326 317 322 336 332 331 332 329 330 335 335 335 336 336 336 335 334 333 333 334 335 334 334 334 333 331 328 325 322 321 320 318 316 313 310 309 307 305 301 296 292 289 283 276 270
142 252 254 213 256 263 267 280 284 285 282 286 288 237 206 208 152 172 242 341 29 316 289 330 339 319 319 1 13 353 340 332 327 325 324 322 320 320 320 321 322 319 318 326 330 329 331 330 327 327 329 332 334 333 332 332 331 331 330 330 332 333 332 332 331 331 330 326 322 320 320 320 319 318 315 313 311 309 307 303 296 290 286 280 274 269
140 255 254 203 283 278 262 267 273 272 282 304 10 70 74 169 162 126 8 21 11 297 287 319 317 309 346 11 350 339 333 330 329 326 322 319 313 311 313 314 314 313 316 324 327 329 330 326 322 322 324 327 328 328 328 326 327 328 328 328 330 331 330 329 328 328 328 324 320 320 320 320 320 319 317 314 313 311 309 306 299 291 283 278 272 266
102 272 299 73 316 286 264 265 278 271 279 308 20 42 32 34 67 61 28 1 345 301 297 319 309 305 10 1 336 329 330 331 328 323 319 315 310 307 307 307 308 309 311 318 323 326 324 319 316 316 318 320 321 323 323 321 322 324 324 326 328 328 328 327 325 326 326 323 320 320 321 320 319 319 317 314 312 311 310 307 300 291 282 276 271 264
52 293 353 49 340 287 301 4 329 317 320 11 33 18 12 32 57 38 335 318 318 306 309 316 309 319 347 337 324 321 328 329 324 321 319 313 309 305 302 304 305 302 305 315 321 321 315 310 309 310 310 312 315 318 318 317 319 320 321 323 326 326 326 324 323 323 323 321 320 320 320 319 319 319 317 314 311 310 310 307 300 290 281 275 270 264
98 89 326 39 309 283 313 348 324 324 342 352 5 355 351 38 48 346 331 317 302 285 294 306 313 331 332 330 329 328 330 330 325 321 317 311 309 302 295 298 300 299 309 316 316 312 306 303 303 302 303 304 307 310 312 313 314 315 317 320 322 323 323 321 320 320 320 320 319 319 319 319 319 317 315 314 311 309 309 305 297 288 280 274 270 264
92 117 234 199 214 279 302 332 335 328 320 284 151 1 326 341 10 346 330 306 287 261 240 307 317 327 329 333 333 327 324 323 318 314 311 306 299 295 296 298 301 306 311 311 307 303 301 302 302 300 298 298 299 303 305 306 307 308 312 316 318 319 319 319 319 319 318 318 318 318 318 319 318 315 314 314 312 311 309 304 296 288 279 273 267 261
46 98 248 144 134 266 313 6 354 304 262 190 137 28 349 283 315 328 311 283 265 241 34 343 321 327 329 326 324 319 314 314 312 308 304 296 286 293 307 310 307 308 307 303 302 301 301 302 301 299 298 296 296 298 299 300 302 304 308 312 314 315 316 316 316 316 317 317 317 317 319 319 317 314 312 313 313 312 310 305 297 289 279 271 264 259
181 232 244 108 185 276 348 25 321 283 221 178 321 3 3 307 312 329 321 304 267 131 32 341 325 325 325 320 318 315 312 312 310 304 298 289 282 319 319 309 307 306 303 303 303 302 302 302 300 298 297 295 294 294 295 297 299 301 305 310 311 312 313 314 314 314 316 316 316 317 318 318 316 313 313 313 314 313 310 306 299 290 281 271 261 256
153 175 46 33 263 156 53 289 286 311 359 74 347 343 345 327 316 308 310 315 321 78 355 339 328 323 322 318 315 315 315 313 309 308 305 296 352 328 314 308 307 304 303 304 303 302 302 301 299 297 296 294 292 291 293 295 297 300 304 308 309 310 312 312 312 312 314 314 314 315 316 315 314 312 312 313 313 312 310 307 300 291 282 269 258 252
74 41 126 299 314 84 47 306 327 334 309 326 349 327 321 313 300 288 282 283 20 351 340 333 322 317 319 318 317 319 321 315 310 316 327 320 317 317 312 306 306 307 308 307 306 305 303 301 299 299 298 294 290 290 293 294 294 298 302 303 305 307 308 308 308 310 312 313 313 314 314 313 311 310 311 312 312 312 311 308 301 291 280 268 257 251
15 22 109 94 322 33 25 300 289 257 246 270 336 329 326 309 298 297 279 254 341 340 331 321 312 312 314 315 316 322 323 314 309 309 307 307 309 310 305 303 308 310 310 310 309 307 305 304 303 303 301 296 290 293 296 294 293 296 296 297 300 301 301 303 305 308 311 311 312 312 311 310 310 310 311 311 312 313 313 310 302 291 278 267 257 251
5 6 48 44 296 267 178 259 264 231 209 322 328 330 328 309 302 314 318 318 333 330 318 311 308 308 310 310 311 315 310 302 299 300 304 306 304 300 299 303 309 311 310 311 312 311 310 309 307 305 302 296 292 297 298 293 291 293 292 295 298 297 297 302 305 308 310 311 310 310 310 311 312 313 314 315 316 317 315 311 303 289 275 265 255 248
354 346 28 113 249 258 206 236 282 258 193 313 338 338 329 312 310 330 324 316 318 314 307 306 305 303 306 307 303 300 291 286 288 293 298 300 298 298 300 302 305 308 309 311 313 315 317 314 309 305 299 295 297 300 296 291 292 295 295 296 296 296 300 305 307 309 311 310 310 310 311 313 314 316 319 320 320 319 316 311 301 287 273 262 251 242
13 330 340 22 290 273 188 248 295 281 187 335 340 337 334 331 329 321 308 304 307 307 305 305 303 301 302 300 294 290 288 285 286 289 290 291 293 295 299 303 307 309 311 312 315 320 321 315 310 305 301 303 307 302 295 294 297 299 298 295 294 299 305 307 308 309 310 309 310 310 311 312 316 319 322 324 324 321 315 309 299 285 272 258 245 236
23 334 332 342 319 324 357 342 340 323 308 334 338 335 341 342 318 305 304 304 305 307 307 305 302 301 302 298 293 290 290 289 288 286 284 286 289 292 298 304 306 308 311 314 317 321 320 315 313 313 314 315 311 301 296 301 303 301 299 296 297 303 307 308 309 310 309 309 310 310 310 312 316 322 325 326 326 322 314 306 296 283 269 253 240 230
38 12 334 341 46 33 342 334 334 296 306 330 336 325 318 311 302 303 308 309 310 311 311 308 304 301 299 297 296 295 296 294 291 288 288 289 290 292 296 302 307 310 312 314 316 319 320 320 321 321 320 317 309 298 299 308 307 303 301 298 301 306 308 309 311 311 308 308 309 309 310 312 317 323 326 327 327 323 314 305 294 281 266 249 234 224
29 3 297 245 30 350 281 269 271 288 317 334 330 318 312 310 310 312 312 312 314 315 314 310 305 302 300 299 300 301 301 300 298 297 297 296 294 294 298 305 311 311 311 313 317 320 324 325 323 321 319 315 307 297 305 313 310 304 301 301 304 307 309 312 313 310 308 308 307 308 310 314 320 325 327 328 328 323 316 308 297 284 268 251 235 223
321 349 322 289 337 321 277 271 292 307 327 330 321 316 315 315 316 316 315 315 315 314 313 309 304 304 305 305 306 306 306 306 306 304 301 296 297 303 308 310 309 309 312 317 321 323 325 325 323 320 317 312 305 303 312 317 312 304 300 302 307 309 311 314 313 309 307 307 308 310 313 316 321 326 329 330 329 324 318 313 303 289 274 259 244 232
338 356 351 337 331 320 308 316 318 321 325 320 314 315 317 317 319 319 318 317 315 314 314 309 305 306 307 308 310 312 312 312 310 307 306 307 312 315 312 310 310 316 323 324 323 325 327 326 323 320 316 312 312 315 316 314 309 304 302 305 310 312 313 314 312 308 307 306 309 312 314 317 322 325 328 331 332 329 325 319 310 296 283 271 257 244
332 350 344 331 323 309 304 313 318 316 311 309 314 319 319 320 320 319 317 316 315 315 314 312 310 309 308 312 317 317 315 315 316 318 322 325 322 315 311 315 323 328 327 325 326 330 329 324 322 320 318 317 318 318 315 311 307 306 307 311 315 316 315 314 312 308 305 306 309 311 314 318 323 327 329 331 332 332 329 324 318 306 293 284 275 264
302 331 334 322 315 306 308 321 325 315 303 308 319 319 318 321 319 316 319 321 320 319 318 315 315 316 316 319 322 319 317 320 325 331 331 325 317 314 319 328 331 328 326 328 330 330 326 322 320 319 317 317 317 316 314 312 310 312 316 319 321 321 317 315 314 311 307 308 310 312 315 320 324 328 330 330 331 332 330 326 321 312 305 300 291 281
336 345 340 326 320 317 320 327 327 317 306 315 321 319 320 321 319 318 323 325 324 323 321 318 319 322 324 324 324 321 321 324 329 330 327 319 314 318 328 332 329 326 327 329 327 325 323 321 319 317 315 315 316 316 315 313 314 319 324 326 326 325 320 317 316 313 310 310 311 313 317 320 324 329 331 330 331 331 330 331 327 314 307 307 305 303
346 342 338 327 315 311 315 320 322 315 308 312 316 318 321 321 320 322 324 323 321 321 320 320 323 328 327 324 324 324 322 321 324 325 322 316 314 319 328 329 326 325 326 326 324 323 322 321 319 317 315 315 316 317 315 316 321 327 330 332 331 328 325 323 319 313 309 310 311 314 318 320 322 327 330 329 329 328 327 328 329 321 306 298 301 306
Height
822 817 817 814 810 812 814 816 816 818 821 821 821 820 822 822 814 807 808 816 821 811 803 807 805 796 786 775 771 776 780 780 782 785 787 788 788 786 787 786 786 787 784 782 781 778 778 778 778 779 780 781 781 782 782 783 784 785 787 788 789 792 794 796 798 800 802 804 807 808 808 809 812 814 817 820 822 824 826 828 830 832 835 837 839 841
823 816 811 808 809 813 817 819 821 823 823 822 821 820 823 826 815 805 810 818 822 813 802 807 806 792 783 774 769 774 779 783 789 792 794 796 796 794 793 793 792 791 788 785 782 779 778 776 776 776 777 778 779 780 781 782 782 783 785 786 788 790 792 793 794 796 797 799 801 803 804 806 809 811 813 815 817 819 822 825 827 829 831 834 835 838
821 812 804 809 817 820 823 826 824 822 823 822 825 825 820 821 815 806 814 822 822 814 802 806 806 786 775 772 768 775 784 793 799 801 804 806 804 803 801 800 798 795 792 789 786 783 780 777 776 775 775 776 776 777 779 780 781 782 783 784 786 788 789 790 792 794 795 796 797 800 802 803 805 807 809 811 814 816 818 821 824 826 828 830 833 835
813 806 810 820 821 817 821 828 826 822 824 823 824 824 814 814 812 801 809 821 820 815 806 809 813 795 778 768 770 784 790 798 807 808 810 812 810 811 809 806 803 800 797 794 791 788 784 780 777 776 775 774 775 776 777 777 778 779 780 782 783 785 786 788 789 791 793 795 796 798 801 803 803 804 807 810 812 813 815 818 820 823 825 827 830 832
806 808 825 827 820 816 815 822 826 820 819 822 823 821 810 808 811 804 809 818 814 815 816 813 802 785 776 764 766 787 794 799 811 811 811 815 816 815 811 809 807 805 803 800 795 792 788 785 781 779 777 775 776 775 775 776 777 777 778 779 780 782 783 785 786 789 791 793 795 797 800 802 803 803 806 808 809 811 813 815 817 819 821 823 825 828
808 819 830 821 819 821 814 817 823 818 817 818 815 815 809 805 811 811 815 817 807 804 813 810 785 765 766 761 760 780 797 806 813 814 815 817 817 815 813 812 811 809 807 804 801 797 793 789 786 782 780 778 777 776 775 776 777 777 777 778 779 780 781 783 784 786 789 790 792 794 796 798 799 800 801 802 804 806 807 809 812 815 817 819 821 823
815 827 830 819 819 822 818 819 821 822 821 814 813 820 818 814 816 816 819 816 803 798 809 813 793 774 769 760 763 784 804 815 816 816 820 820 818 818 817 817 814 812 809 806 803 799 796 792 789 786 784 782 780 777 776 775 776 776 777 778 778 779 780 781 783 785 786 788 789 790 791 792 793 794 796 798 801 801 802 804 807 810 812 815 817 819
816 823 825 821 820 822 820 817 818 823 818 810 821 828 820 817 817 817 819 814 810 811 814 813 804 796 783 769 779 795 803 816 821 821 824 823 822 822 820 820 818 815 812 809 805 802 799 797 794 792 789 787 783 779 777 776 776 776 776 777 777 778 780 781 782 783 784 785 786 787 787 789 789 790 792 795 796 797 799 801 804 806 808 811 813 815
816 814 815 818 818 819 817 816 822 822 811 811 829 831 822 822 819 818 818 815 823 821 808 808 810 804 784 773 791 803 805 821 828 827 829 827 827 826 824 823 820 818 816 812 809 805 803 801 799 797 794 790 786 782 780 778 776 776 776 776 777 777 779 780 781 781 782 782 784 784 785 786 787 788 790 792 793 795 797 799 800 802 804 806 809 811
814 815 816 815 812 813 816 826 831 822 812 821 834 830 826 830 826 827 823 817 827 818 796 800 806 793 774 777 804 814 819 835 835 832 833 831 831 828 826 825 822 820 818 813 811 809 807 806 804 802 796 792 789 786 783 780 778 777 776 776 776 777 777 778 779 779 780 780 782 782 783 784 785 786 789 790 790 792 793 795 797 799 800 802 804 806
816 823 824 817 813 816 823 833 835 828 825 830 830 820 818 826 829 833 830 826 823 804 791 803 807 790 775 795 829 833 833 844 840 836 835 830 831 830 828 828 825 823 820 814 812 811 810 808 806 803 799 795 792 789 785 783 782 780 778 777 777 778 778 778 778 778 778 778 779 780 780 781 782 784 786 786 787 788 789 791 792 794 796 797 799 801
813 818 820 819 822 824 822 825 833 834 832 828 821 813 809 813 819 824 827 828 812 786 791 817 822 799 779 799 836 842 839 844 841 839 837 833 833 831 831 831 829 826 820 816 814 813 811 808 806 803 800 798 794 791 789 788 787 784 781 780 778 779 779 778 778 777 777 777 777 778 778 779 780 781 782 782 783 783 784 785 786 789 791 793 795 797
802 813 821 821 823 823 813 812 823 830 829 824 818 816 812 807 806 802 802 808 798 784 800 822 816 798 792 811 834 841 842 843 841 841 838 837 836 833 833 832 829 824 819 818 817 815 814 811 809 806 803 801 798 795 793 791 790 788 785 783 782 782 781 779 779 778 778 778 777 777 777 777 778 779 780 780 780 780 781 781 782 784 786 788 790 792
797 809 821 816 815 821 813 802 803 811 822 823 816 813 809 805 804 795 790 798 793 786 806 822 809 793 801 824 836 838 843 841 839 841 838 838 837 834 834 831 826 824 821 822 821 819 818 814 812 810 807 805 802 799 798 795 794 792 788 786 785 785 783 781 780 779 779 778 778 778 777 777 778 777 778 779 779 780 780 780 781 781 782 782 783 785
803 797 806 808 807 815 815 807 803 805 815 822 819 815 809 802 802 799 790 789 785 782 799 812 800 784 789 817 835 837 840 840 838 840 838 837 837 834 833 829 826 826 824 824 823 821 818 815 813 812 809 807 805 803 801 799 798 795 791 789 787 786 785 783 781 779 778 778 778 778 778 778 778 777 777 777 777 778 778 779 779 779 780 780 780 781
809 794 804 817 818 816 814 815 817 809 807 822 827 818 813 805 800 802 797 795 797 796 797 792 790 805 819 829 838 836 836 840 838 839 838 836 835 832 831 829 827 827 826 824 822 819 817 816 816 814 811 809 807 805 804 802 801 798 795 792 789 789 787 785 783 780 779 778 777 777 777 777 777 776 776 775 775 776 776 777 777 777 777 778 779 780
811 799 803 816 819 818 816 816 818 809 801 819 824 807 807 811 805 805 805 810 815 809 802 786 784 819 838 831 836 839 837 839 838 837 837 834 833 832 830 831 830 829 828 825 822 821 819 819 817 815 813 811 809 808 806 805 803 801 798 795 792 790 788 786 784 782 780 778 776 775 775 775 776 776 774 774 773 773 774 774 774 774 775 775 777 778
824 809 798 804 807 813 825 822 817 817 810 809 810 802 807 813 810 812 813 814 814 807 802 786 777 798 806 804 828 840 835 837 837 835 836 832 831 831 830 831 830 829 828 826 824 823 821 819 817 816 814 813 811 809 808 806 804 802 800 797 794 791 789 788 786 784 781 779 777 775 774 774 774 774 773 772 771 771 771 771 771 771 772 772 773 774
834 819 801 807 811 811 824 821 808 814 818 810 806 807 809 808 807 814 818 814 812 809 800 784 779 787 785 794 825 837 832 837 836 833 834 831 830 830 829 828 827 827 826 825 824 822 821 820 818 816 814 812 811 809 807 806 804 802 799 797 795 793 791 789 787 784 782 779 777 775 774 773 772 772 771 770 770 769 768 767 768 768 768 769 770 770
834 826 810 810 816 813 813 812 803 804 813 815 814 814 814 813 811 813 817 813 811 813 807 795 785 781 792 815 832 835 835 838 836 835 836 834 832 831 829 828 827 826 825 824 823 822 821 820 818 817 815 812 810 808 806 804 802 800 798 796 794 792 790 788 786 784 781 779 777 775 773 771 770 769 768 767 767 767 766 766 765 765 765 765 766 766
832 831 819 807 811 813 804 803 801 798 804 809 811 813 812 812 811 814 818 815 812 810 809 812 797 783 808 835 832 831 837 837 836 838 837 836 835 833 832 831 829 828 827 825 824 822 821 820 818 816 815 813 811 809 806 804 802 800 798 795 793 791 788 787 785 783 781 778 776 774 772 771 769 768 766 765 764 763 763 763 763 762 762 762 762 762
831 831 827 814 811 810 799 799 804 804 806 805 805 809 811 812 813 818 822 821 820 814 812 821 809 795 818 836 829 833 838 835 837 838 837 838 835 833 833 832 831 830 828 827 825 824 822 820 818 816 815 813 811 809 807 805 803 800 798 795 793 791 789 787 785 782 780 777 775 773 771 769 767 766 764 762 760 760 760 760 760 760 760 759 758 759
835 834 834 824 815 808 801 806 814 814 812 810 812 816 817 818 818 818 819 822 828 824 821 827 817 809 830 839 832 836 837 835 838 837 838 838 834 833 833 832 832 831 829 827 825 824 823 821 819 816 814 812 810 808 806 803 802 800 798 795 793 791 789 787 785 782 779 776 774 771 769 767 765 763 761 759 758 757 757 757 757 757 756 756 756 756
837 835 834 827 815 807 804 810 817 818 812 809 817 826 827 824 822 823 823 826 830 824 822 827 816 812 834 840 834 837 838 837 839 838 839 838 834 834 832 830 831 829 827 826 824 823 822 820 819 816 813 811 808 806 804 801 800 798 796 795 793 791 789 787 784 781 779 776 772 770 768 765 763 760 759 757 756 755 755 754 754 753 753 753 753 752
836 832 833 834 827 817 808 807 811 814 812 811 819 832 837 833 831 833 833 834 833 822 820 823 813 812 833 841 837 840 841 840 841 840 840 838 835 833 831 830 829 827 826 824 822 822 820 819 818 815 813 811 808 806 804 802 800 798 796 794 792 790 788 786 784 781 779 776 772 770 767 764 762 760 758 756 755 753 752 752 751 751 750 750 749 748
839 834 833 837 839 835 823 812 810 814 819 822 826 834 838 836 834 832 831 834 833 827 826 824 815 818 833 839 838 842 843 843 842 839 838 836 834 832 830 830 828 827 825 822 821 821 819 818 816 814 812 811 808 807 804 802 800 797 796 794 792 790 788 785 783 780 778 775 772 769 767 764 762 760 758 755 753 752 750 749 749 748 747 746 745 744
843 840 834 831 832 833 826 817 816 820 823 823 825 832 838 843 845 840 835 835 835 834 833 827 826 832 833 833 840 845 845 844 841 838 836 835 833 831 829 829 828 827 825 821 820 820 818 817 815 813 812 810 808 807 804 802 800 797 795 793 791 789 787 785 782 780 777 774 771 768 766 764 762 759 757 754 752 750 748 747 745 744 743 742 741 740
843 838 835 834 829 825 825 822 822 826 827 825 827 835 842 847 849 842 836 836 839 841 836 830 838 845 838 837 846 848 846 845 842 839 837 834 832 830 829 828 827 825 823 821 820 819 818 816 813 812 810 808 807 805 803 801 799 796 794 792 790 788 786 784 781 779 776 773 769 767 763 761 759 757 755 753 750 748 746 744 742 740 739 738 736 736
842 837 839 842 834 828 830 827 824 829 831 829 832 839 845 848 847 844 841 841 846 849 844 840 846 848 843 845 850 848 847 845 842 839 837 835 832 830 829 828 825 823 822 820 819 818 816 814 812 810 808 807 805 802 801 799 796 794 792 790 788 786 784 782 779 777 775 771 768 765 761 758 756 753 751 749 746 743 741 739 738 736 735 734 733 733
843 838 842 847 839 832 832 829 828 834 833 830 837 847 852 850 849 849 850 849 852 854 850 849 851 847 846 850 850 847 846 844 842 839 837 834 831 830 828 827 824 822 821 820 818 816 814 812 810 808 806 805 803 800 798 796 794 792 789 787 785 783 781 779 777 775 773 770 767 764 760 757 753 750 747 745 742 739 737 734 733 732 731 731 730 730
844 841 845 849 842 831 830 830 831 833 832 833 844 853 855 852 851 855 856 853 855 856 852 853 853 847 846 849 848 845 844 843 841 839 836 833 831 828 826 825 823 821 820 819 817 814 812 810 808 805 803 801 799 798 795 793 791 789 787 785 782 780 779 777 774 772 770 768 765 762 758 755 751 748 745 742 739 736 733 732 730 729 728 728 727 727
845 845 847 849 843 831 830 833 832 832 835 842 854 860 857 855 857 859 858 854 855 857 855 854 854 850 847 847 846 844 843 842 841 838 835 831 828 827 825 822 820 820 819 818 816 813 812 809 806 803 800 798 796 794 791 789 787 785 783 782 780 777 776 773 771 769 766 765 763 760 757 753 750 747 744 741 738 734 732 729 727 726 726 725 724 723
853 849 847 852 846 830 831 838 836 834 832 839 857 864 859 858 859 858 857 854 852 854 855 855 853 850 848 846 844 842 840 840 839 836 833 829 825 824 823 820 819 819 818 816 813 812 809 806 804 801 798 796 793 791 789 786 784 782 780 778 776 774 772 770 768 766 763 761 759 756 754 751 748 745 741 739 736 733 730 728 725 724 723 722 721 720
859 854 853 858 846 830 836 845 838 832 833 843 859 862 856 857 858 857 858 854 850 850 852 853 852 849 847 846 846 844 841 839 838 834 831 827 823 820 819 819 819 818 815 814 811 809 806 803 801 798 796 793 791 789 787 785 782 780 778 776 774 772 769 767 765 762 760 757 755 753 751 749 746 742 739 736 733 730 728 725 723 721 720 719 719 717
856 855 858 864 856 844 846 847 835 831 843 857 861 856 855 856 853 855 856 850 847 851 853 853 851 849 847 846 844 843 840 838 835 831 827 823 820 819 819 819 818 815 812 810 808 806 803 801 798 795 792 790 788 786 784 782 780 778 776 774 772 770 768 765 762 760 757 754 752 750 747 745 742 739 737 734 731 728 725 722 719 718 717 717 716 715
856 855 856 863 862 854 849 847 843 845 856 865 861 856 858 858 853 857 857 847 845 850 852 852 850 847 846 844 841 840 837 834 832 827 822 819 817 819 819 817 815 813 809 807 805 802 800 798 795 792 789 787 784 783 781 779 777 775 773 772 770 767 765 763 759 757 754 752 749 747 745 742 739 736 734 731 728 725 722 719 717 715 714 714 713 713
859 855 853 855 855 855 855 856 854 852 855 864 867 862 862 862 859 861 860 852 848 850 850 849 847 844 842 841 838 836 834 832 829 823 818 817 817 818 817 815 812 810 807 805 802 800 797 794 791 789 786 783 781 780 778 775 773 772 770 768 766 764 762 759 756 754 751 749 747 744 742 740 737 734 731 728 726 723 720 717 714 712 712 711 711 711
859 855 854 855 854 855 858 860 859 854 855 866 874 867 863 864 859 859 862 857 850 848 847 846 845 842 839 837 835 833 831 830 827 822 817 816 816 815 813 811 810 807 805 802 799 796 793 790 787 785 783 780 778 777 775 772 771 769 767 765 763 762 759 757 754 751 749 746 744 742 740 738 736 733 729 726 724 720 717 715 712 710 710 709 709 709
858 860 860 860 860 861 861 862 862 859 861 873 877 867 862 862 856 857 862 856 846 844 844 843 843 841 838 836 834 832 833 831 825 818 815 814 813 812 810 807 805 804 802 799 797 793 789 786 784 781 779 777 775 773 771 770 768 767 764 763 761 760 757 755 752 749 746 743 741 739 737 735 733 731 727 724 721 718 715 713 710 709 708 708 708 708
859 865 864 861 862 866 869 869 865 864 870 877 874 866 863 860 855 858 860 851 844 845 844 841 840 838 836 836 834 833 835 831 821 814 812 810 809 807 806 803 801 800 798 795 793 790 787 784 781 778 775 773 771 769 768 766 765 763 761 760 758 756 754 752 749 746 743 741 738 736 734 733 730 728 725 722 719 716 713 711 709 707 707 707 707 707
866 871 875 873 868 866 872 873 866 864 873 876 870 865 863 858 859 864 862 852 847 846 844 841 838 835 834 833 832 831 830 825 818 812 810 808 805 802 801 799 798 796 794 792 789 787 784 781 779 775 772 769 767 766 764 763 761 760 758 757 755 753 751 748 746 743 740 738 736 734 732 730 728 725 723 720 717 714 712 710 708 707 706 706 706 706
874 874 876 878 873 870 875 875 866 863 870 873 867 863 863 864 867 866 859 852 848 844 841 839 836 834 832 831 829 827 822 818 814 810 807 805 802 799 796 795 793 792 791 789 786 784 782 778 775 771 768 767 765 763 761 760 758 756 755 753 751 749 747 745 743 741 738 736 733 731 730 728 726 723 720 718 715 713 711 709 707 707 706 705 706 706
881 878 873 875 879 881 880 878 875 874 873 871 868 866 866 868 868 861 853 850 847 842 839 836 834 833 831 828 826 822 817 814 810 806 803 801 798 796 794 792 790 788 786 784 783 782 779 776 772 769 767 765 763 760 758 757 755 753 752 750 747 746 744 742 740 738 736 734 731 729 728 726 724 722 719 716 714 712 710 709 707 707 706 706 706 706
890 892 888 886 889 893 891 884 881 880 873 870 872 871 868 866 862 856 851 847 843 840 837 834 832 831 828 825 822 817 813 810 805 801 799 797 795 794 791 789 787 785 782 781 780 778 776 773 770 768 766 763 760 758 756 755 752 750 749 746 744 743 741 739 738 736 734 732 730 728 726 724 722 720 718 715 713 711 710 709 707 707 706 706 706 706
896 897 896 894 891 892 892 886 879 875 870 869 870 867 863 860 857 853 850 845 841 839 836 833 830 827 825 822 818 814 810 806 801 798 796 794 792 790 789 787 786 783 780 778 776 775 774 771 769 766 763 761 758 756 754 753 751 748 746 744 742 741 739 737 736 734 732 730 728 726 724 722 720 718 716 714 713 711 710 708 707 707 706 706 706 706
898 893 892 892 888 885 883 877 873 872 869 868 866 863 860 857 853 850 848 844 840 837 834 832 829 825 822 819 815 812 808 804 800 797 794 792 790 789 787 786 783 781 779 776 774 773 771 769 767 764 761 759 756 754 753 751 749 746 743 742 740 739 737 736 734 732 730 729 727 725 722 720 718 716 715 713 712 710 709 708 707 707 706 706 706 706
894 890 890 890 888 887 882 874 872 871 869 867 864 860 857 854 851 850 847 843 839 836 833 830 827 822 819 816 813 810 806 802 799 795 792 791 790 788 787 784 781 779 778 776 773 771 769 767 765 762 759 756 754 753 751 749 747 744 741 740 739 737 736 734 732 731 729 727 725 723 721 719 717 715 713 712 710 709 709 708 707 707 706 706 706 706
894 892 894 891 889 887 881 874 871 870 867 866 864 859 856 853 849 848 846 842 839 836 832 828 824 820 817 814 812 809 805 801 798 795 793 792 790 788 785 782 780 778 776 774 772 770 768 766 763 760 757 755 753 751 749 746 744 742 740 739 738 736 734 733 731 729 727 725 723 721 719 718 716 714 712 711 709 709 708 707 707 706 706 706 706 706
895 895 895 892 888 883 877 873 872 868 864 862 861 859 855 852 849 846 844 841 838 834 830 826 822 819 815 813 811 808 804 801 799 797 795 793 790 787 783 781 780 778 775 772 771 769 767 765 762 759 756 754 751 749 746 744 742 740 739 738 736 735 733 731 729 727 725 723 722 720 718 716 714 713 711 710 709 708 707 707 706 706 705 705 705 705
897 897 895 894 891 885 879 876 874 870 864 860 859 857 854 851 849 845 841 839 836 832 829 825 820 817 815 812 809 807 804 801 799 797 796 793 790 786 783 781 779 776 773 772 770 768 766 763 760 758 755 752 750 747 744 742 740 739 738 736 734 733 731 729 727 725 723 721 720 718 716 715 713 712 710 709 708 707 706 706 706 705 705 705 705 705
899 899 898 897 894 887 881 877 875 873 867 861 857 855 853 850 848 844 840 838 834 831 827 824 819 816 813 810 808 806 803 800 798 796 794 791 787 785 782 780 777 774 772 771 768 765 763 761 758 756 753 750 747 745 742 741 739 737 736 734 732 731 729 728 726 724 722 720 718 717 715 713 712 710 709 708 707 706 705 704 704 704 704 704 704 704